Weather History for Jacksonville, FL

Change the Weather History Date:

Friday, August 9, 2013

  Actual Average Record
Temperature  
Mean Temperature 83 °F 82 °F  
Max Temperature 91 °F 92 °F 101 °F (1987)
Min Temperature 74 °F 73 °F 63 °F (2002)
Degree Days  
Heating Degree Days 0 0  
Month to date heating degree days 0 0  
Since 1 June heating degree days 0 0  
Since 1 July heating degree days 0 0  
Cooling Degree Days 18 17  
Month to date cooling degree days 162 154  
Year to date cooling degree days 1561 1623  
Since 1 June cooling degree days 1125 1139  
Growing Degree Days 32 (Base 50)    
Moisture  
Dew Point 74 °F    
Average Humidity 78    
Maximum Humidity 100    
Minimum Humidity 56    
Precipitation  
Precipitation 0.00 in 0.20 in 2.04 in (1945)
Month to date precipitation 1.61 1.79  
Year to date precipitation 32.02 30.35  
Snow  
Snow 0.00 in 0.00 in 0.00 in (2002)
Month to date snowfall 0.0 0.0  
Since 1 June snowfall 0.0 0.0  
Since 1 July snowfall 0.0 0.0  
Snow Depth 0.00 in    
Sea Level Pressure  
Sea Level Pressure 30.06 in    
Wind  
Wind Speed 5 mph (ESE)    
Max Wind Speed 15 mph    
Max Gust Speed 20 mph    
Visibility 10 miles    
Events      
T = Trace of Precipitation, MM = Missing Value Source: NWS Daily Summary

Daily Weather History Graph

Daily Weather History Graph

Search for Another Location

Airport:

Trip Planner

Search our weather history database for the weather conditions in past years. The results will help you decide how hot, cold, wet, or windy it might be!

Date:

Astronomy

Aug. 09, 2013 Rise Set
Actual Time 6:49 AM EDT 8:14 PM EDT
Civil Twilight 6:24 AM EDT 8:39 PM EDT
Nautical Twilight 5:53 AM EDT 9:10 PM EDT
Astronomical Twilight 5:21 AM EDT 9:41 PM EDT
Moon 9:18 AM EDT (8/9) 9:41 PM EDT (8/9)
Length of Visible Light 14h 15m
Length of Day
13h 24m
Waxing Crescent, 7% of the Moon is Illuminated
Aug 9
Waxing Crescent
Aug 14
First Quarter
Aug 20
Full
Aug 28
Last Quarter
Sep 5
New

Hourly Weather History & Observations

Time (EDT) Temp. Heat Index Dew Point Humidity Pressure Visibility Wind Dir Wind Speed Gust Speed Precip Events Conditions
12:56 AM 78.1 °F - 75.0 °F 90% 30.05 in 10.0 mi South 3.5 mph - N/A   Scattered Clouds
1:56 AM 78.1 °F - 75.0 °F 90% 30.03 in 10.0 mi SE 5.8 mph - N/A   Scattered Clouds
2:56 AM 78.1 °F - 75.0 °F 90% 30.01 in 10.0 mi SE 6.9 mph - N/A   Partly Cloudy
3:56 AM 78.1 °F - 75.0 °F 90% 30.00 in 10.0 mi SSE 5.8 mph - N/A   Scattered Clouds
4:56 AM 77.0 °F - 75.0 °F 94% 30.00 in 10.0 mi SSE 3.5 mph - N/A   Clear
5:56 AM 75.0 °F - 73.9 °F 96% 30.03 in 10.0 mi Calm Calm - N/A   Partly Cloudy
6:56 AM 75.0 °F - 73.0 °F 94% 30.05 in 10.0 mi Calm Calm - N/A   Scattered Clouds
7:56 AM 77.0 °F - 75.9 °F 96% 30.06 in 10.0 mi Calm Calm - N/A   Mostly Cloudy
8:56 AM 78.1 °F - 75.9 °F 93% 30.08 in 10.0 mi North 3.5 mph - N/A   Scattered Clouds
9:56 AM 84.0 °F 92.6 °F 75.9 °F 76% 30.08 in 10.0 mi Calm Calm - N/A   Scattered Clouds
10:56 AM 86.0 °F 93.8 °F 73.9 °F 67% 30.10 in 10.0 mi ESE 4.6 mph - N/A   Scattered Clouds
11:56 AM 89.1 °F 96.0 °F 72.0 °F 57% 30.09 in 10.0 mi Calm Calm - N/A   Scattered Clouds
12:56 PM 90.0 °F 99.0 °F 73.9 °F 59% 30.09 in 10.0 mi Calm Calm - N/A   Mostly Cloudy
1:56 PM 91.0 °F 100.4 °F 73.9 °F 57% 30.08 in 10.0 mi ESE 12.7 mph - N/A   Mostly Cloudy
2:56 PM 89.1 °F 95.0 °F 71.1 °F 55% 30.06 in 10.0 mi SE 8.1 mph - N/A   Mostly Cloudy
3:56 PM 87.1 °F 96.3 °F 75.0 °F 67% 30.05 in 10.0 mi East 12.7 mph - N/A   Mostly Cloudy
4:56 PM 89.1 °F 96.0 °F 72.0 °F 57% 30.04 in 10.0 mi East 9.2 mph - N/A   Scattered Clouds
5:56 PM 88.0 °F 94.7 °F 72.0 °F 59% 30.03 in 10.0 mi East 9.2 mph - N/A   Scattered Clouds
6:56 PM 86.0 °F 93.0 °F 73.0 °F 65% 30.05 in 10.0 mi ESE 10.4 mph - N/A   Scattered Clouds
7:56 PM 82.9 °F 89.4 °F 73.9 °F 74% 30.07 in 10.0 mi ESE 11.5 mph - N/A   Scattered Clouds
8:56 PM 81.0 °F 86.7 °F 75.0 °F 82% 30.08 in 10.0 mi SE 8.1 mph - N/A   Scattered Clouds
9:56 PM 81.0 °F 86.2 °F 73.9 °F 79% 30.09 in 10.0 mi ESE 6.9 mph - N/A   Partly Cloudy
10:56 PM 78.1 °F - 75.0 °F 90% 30.09 in 10.0 mi ESE 6.9 mph - N/A   Partly Cloudy
11:56 PM 75.9 °F - 75.0 °F 97% 30.09 in 10.0 mi ENE 3.5 mph - N/A   Scattered Clouds